When you browse on this site, cookies collect data to enhance your experience and personalize the content and advertising you see.
Visit our Privacy Policy to learn more. By continuing to use the site, you agree to this use of cookies and data.
  • In Lithuania
  • List of Countries
  • For 7 days
  • Water Temperature
  • Satellite Maps
  • Weather Map
  • Weather Widgets
  • user-avatar
    Login

    Hourly Weather Lambaréné

    Today, 22 March, Friday

    Time Temperature Precipitation Wind Pressure Humidity
    00:00 +27°C° 0 mm 1 mps 752 mmHg 95%
    01:00 +27°C° 0 mm 1 mps 752 mmHg 96%
    02:00 +27°C° 0 mm 1 mps 751 mmHg 96%
    03:00 +27°C° 0 mm 1 mps 751 mmHg 97%
    04:00 +25°C° 0 mm 0 mps 751 mmHg 97%
    05:00 +25°C° 0 mm 0 mps 751 mmHg 97%
    06:00 +25°C° 0 mm 0 mps 752 mmHg 96%
    07:00 +25°C° 0 mm 0 mps 752 mmHg 96%
    08:00 +27°C° 0 mm 0 mps 752 mmHg 84%
    09:00 +32°C° 0 mm 1 mps 753 mmHg 73%
    10:00 +34°C° 0 mm 1 mps 753 mmHg 62%
    11:00 +35°C° 0.7 mm 1 mps 752 mmHg 63%
    12:00 +35°C° 0.7 mm 1 mps 752 mmHg 63%
    13:00 +35°C° 0.7 mm 1 mps 751 mmHg 64%
    14:00 +34°C° 2.6 mm 1 mps 751 mmHg 71%
    15:00 +32°C° 2.6 mm 1 mps 750 mmHg 79%
    16:00 +31°C° 2.6 mm 2 mps 750 mmHg 86%
    17:00 +29°C° 2.6 mm 1 mps 751 mmHg 89%
    18:00 +28°C° 2.6 mm 1 mps 751 mmHg 91%
    19:00 +25°C° 2.6 mm 0 mps 752 mmHg 94%
    20:00 +27°C° 0.7 mm 1 mps 752 mmHg 95%
    21:00 +26°C° 0.7 mm 1 mps 752 mmHg 95%
    22:00 +26°C° 0.7 mm 2 mps 753 mmHg 95%
    23:00 +26°C° 0 mm 1 mps 752 mmHg 96%

    Tomorrow, 23 March, Saturday

    Time Temperature Precipitation Wind Pressure Humidity
    00:00 +26°C° 0 mm 1 mps 752 mmHg 96%
    01:00 +26°C° 0 mm 1 mps 752 mmHg 97%
    02:00 +25°C° 0 mm 1 mps 752 mmHg 97%
    03:00 +25°C° 0 mm 1 mps 752 mmHg 97%
    04:00 +23°C° 0 mm 0 mps 752 mmHg 98%
    05:00 +23°C° 0 mm 0 mps 752 mmHg 97%
    06:00 +23°C° 0 mm 0 mps 752 mmHg 97%
    07:00 +24°C° 0 mm 0 mps 753 mmHg 96%
    08:00 +26°C° 0 mm 0 mps 754 mmHg 85%
    09:00 +29°C° 0 mm 0 mps 754 mmHg 74%
    10:00 +31°C° 0 mm 0 mps 755 mmHg 63%
    11:00 +32°C° 0 mm 0 mps 754 mmHg 58%
    12:00 +35°C° 0 mm 1 mps 753 mmHg 54%
    13:00 +36°C° 0 mm 1 mps 753 mmHg 49%
    14:00 +36°C° 0 mm 1 mps 752 mmHg 50%
    15:00 +37°C° 0 mm 2 mps 751 mmHg 51%
    16:00 +36°C° 0 mm 3 mps 750 mmHg 52%
    17:00 +34°C° 1.2 mm 3 mps 751 mmHg 65%
    18:00 +30°C° 1.2 mm 2 mps 751 mmHg 79%
    19:00 +28°C° 1.2 mm 2 mps 752 mmHg 92%
    20:00 +27°C° 1.8 mm 2 mps 752 mmHg 93%
    21:00 +27°C° 1.8 mm 2 mps 753 mmHg 94%
    22:00 +26°C° 1.8 mm 2 mps 753 mmHg 95%
    23:00 +26°C° 0 mm 1 mps 753 mmHg 96%

    Day after tomorrow, 24 March, Sunday

    Time Temperature Precipitation Wind Pressure Humidity
    00:00 +26°C° 0 mm 1 mps 753 mmHg 96%
    01:00 +26°C° 0 mm 1 mps 753 mmHg 97%
    02:00 +26°C° 0.4 mm 1 mps 752 mmHg 97%
    03:00 +26°C° 0.4 mm 1 mps 752 mmHg 98%
    04:00 +24°C° 0.4 mm 0 mps 752 mmHg 98%
    05:00 +24°C° 0 mm 0 mps 752 mmHg 98%
    06:00 +24°C° 0 mm 0 mps 753 mmHg 98%
    07:00 +26°C° 0 mm 1 mps 754 mmHg 97%
    08:00 +26°C° 0 mm 0 mps 754 mmHg 88%
    09:00 +29°C° 0 mm 0 mps 754 mmHg 78%
    10:00 +31°C° 0 mm 0 mps 755 mmHg 68%
    11:00 +34°C° 0 mm 1 mps 754 mmHg 62%
    12:00 +35°C° 0 mm 1 mps 753 mmHg 56%
    13:00 +37°C° 0 mm 2 mps 752 mmHg 50%
    14:00 +37°C° 0.1 mm 2 mps 751 mmHg 52%
    15:00 +36°C° 0.1 mm 2 mps 751 mmHg 54%
    16:00 +35°C° 0.1 mm 1 mps 750 mmHg 56%
    17:00 +34°C° 0.1 mm 2 mps 750 mmHg 64%
    18:00 +31°C° 0.1 mm 2 mps 751 mmHg 72%
    19:00 +29°C° 0.1 mm 2 mps 751 mmHg 80%
    20:00 +29°C° 2.4 mm 2 mps 752 mmHg 84%
    21:00 +28°C° 2.4 mm 2 mps 753 mmHg 89%
    22:00 +27°C° 2.4 mm 2 mps 754 mmHg 93%
    23:00 +27°C° 0.8 mm 2 mps 753 mmHg 94%

    25 March, Monday

    Time Temperature Precipitation Wind Pressure Humidity
    00:00 +26°C° 0.8 mm 1 mps 753 mmHg 95%
    01:00 +26°C° 0.8 mm 1 mps 753 mmHg 96%
    02:00 +26°C° 0 mm 1 mps 752 mmHg 96%
    03:00 +26°C° 0 mm 1 mps 752 mmHg 97%
    04:00 +26°C° 0 mm 1 mps 751 mmHg 97%
    05:00 +26°C° 0 mm 1 mps 752 mmHg 97%
    06:00 +26°C° 0 mm 1 mps 753 mmHg 97%
    07:00 +26°C° 0 mm 1 mps 753 mmHg 97%
    08:00 +26°C° 0 mm 0 mps 753 mmHg 86%
    09:00 +29°C° 0 mm 0 mps 754 mmHg 76%
    10:00 +31°C° 0 mm 0 mps 754 mmHg 65%
    11:00 +33°C° 0 mm 0 mps 753 mmHg 58%
    12:00 +36°C° 0 mm 1 mps 752 mmHg 50%
    13:00 +39°C° 0 mm 1 mps 751 mmHg 42%
    14:00 +37°C° 0 mm 1 mps 751 mmHg 44%
    15:00 +37°C° 0 mm 1 mps 750 mmHg 45%
    16:00 +36°C° 0 mm 1 mps 750 mmHg 47%
    17:00 +34°C° 0 mm 1 mps 750 mmHg 54%
    18:00 +32°C° 0 mm 2 mps 751 mmHg 60%
    19:00 +31°C° 0 mm 2 mps 751 mmHg 67%
    20:00 +30°C° 0 mm 2 mps 751 mmHg 75%
    21:00 +29°C° 0 mm 2 mps 752 mmHg 83%
    22:00 +28°C° 0 mm 1 mps 753 mmHg 91%
    23:00 +28°C° 0 mm 1 mps 752 mmHg 92%

    26 March, Tuesday

    Time Temperature Precipitation Wind Pressure Humidity
    00:00 +27°C° 0 mm 1 mps 752 mmHg 94%
    01:00 +27°C° 0 mm 1 mps 752 mmHg 95%
    02:00 +27°C° 0 mm 1 mps 752 mmHg 96%
    03:00 +26°C° 0 mm 1 mps 752 mmHg 97%
    04:00 +24°C° 0 mm 0 mps 751 mmHg 98%
    05:00 +24°C° 0 mm 0 mps 752 mmHg 97%
    06:00 +25°C° 0 mm 0 mps 752 mmHg 96%
    07:00 +25°C° 0 mm 0 mps 753 mmHg 95%
    08:00 +27°C° 0 mm 0 mps 753 mmHg 87%
    09:00 +28°C° 0 mm 0 mps 753 mmHg 79%
    10:00 +30°C° 0 mm 0 mps 753 mmHg 71%
    11:00 +31°C° 0 mm 0 mps 753 mmHg 67%
    12:00 +32°C° 0 mm 0 mps 752 mmHg 63%
    13:00 +33°C° 0 mm 0 mps 751 mmHg 60%
    14:00 +35°C° 0 mm 1 mps 751 mmHg 56%
    15:00 +36°C° 0 mm 1 mps 750 mmHg 53%
    16:00 +36°C° 0 mm 1 mps 749 mmHg 50%
    17:00 +34°C° 0.3 mm 1 mps 750 mmHg 59%
    18:00 +32°C° 0.3 mm 2 mps 751 mmHg 68%
    19:00 +30°C° 0.3 mm 2 mps 751 mmHg 77%
    20:00 +30°C° 0.3 mm 2 mps 752 mmHg 82%
    21:00 +29°C° 0.3 mm 2 mps 752 mmHg 87%
    22:00 +28°C° 0.3 mm 2 mps 753 mmHg 92%
    23:00 +28°C° 0.2 mm 2 mps 752 mmHg 93%

    27 March, Wednesday

    Time Temperature Precipitation Wind Pressure Humidity
    00:00 +28°C° 0.2 mm 1 mps 752 mmHg 94%
    01:00 +27°C° 0.2 mm 1 mps 752 mmHg 95%
    02:00 +27°C° 0 mm 1 mps 752 mmHg 95%
    03:00 +27°C° 0 mm 1 mps 752 mmHg 96%
    04:00 +27°C° 0 mm 1 mps 751 mmHg 96%
    05:00 +27°C° 0 mm 1 mps 752 mmHg 95%
    06:00 +25°C° 0 mm 0 mps 753 mmHg 95%
    07:00 +25°C° 0 mm 0 mps 753 mmHg 95%
    08:00 +26°C° 0.1 mm 0 mps 753 mmHg 89%
    09:00 +30°C° 0.1 mm 1 mps 754 mmHg 83%
    10:00 +31°C° 0.1 mm 1 mps 754 mmHg 77%
    11:00 +32°C° 0 mm 1 mps 753 mmHg 71%
    12:00 +33°C° 0 mm 1 mps 753 mmHg 65%
    13:00 +34°C° 0 mm 1 mps 752 mmHg 59%
    14:00 +35°C° 0 mm 1 mps 751 mmHg 58%
    15:00 +33°C° 0 mm 0 mps 751 mmHg 57%
    16:00 +33°C° 0 mm 0 mps 750 mmHg 56%
    17:00 +33°C° 0.2 mm 1 mps 751 mmHg 65%
    18:00 +31°C° 0.2 mm 1 mps 751 mmHg 74%
    19:00 +29°C° 0.2 mm 2 mps 752 mmHg 84%
    20:00 +29°C° 0.5 mm 2 mps 752 mmHg 88%
    21:00 +28°C° 0.5 mm 2 mps 753 mmHg 92%
    22:00 +27°C° 0.5 mm 2 mps 753 mmHg 96%
    23:00 +27°C° 0.1 mm 2 mps 753 mmHg 96%
    Show more